Gunnison, CO

10:17 PM MDT on September 19, 2019 (GMT -0600)
Gunnison County

Weather History for KGUC - August, 2019

Change the Weather History Date:

Sunday, August 25, 2019

  Actual Average Record
Temperature  
Mean Temperature 60 °F -  
Max Temperature 84 °F 73 °F 82 °F (2007)
Min Temperature 37 °F 40 °F 33 °F (2002)
Degree Days  
Heating Degree Days 4    
Growing Degree Days 10 (Base 50)    
Moisture  
Dew Point 35 °F    
Average Humidity 43    
Maximum Humidity 82    
Minimum Humidity 17    
Precipitation  
Precipitation 0.00 in - - ()
Sea Level Pressure  
Sea Level Pressure 30.04 in    
Wind  
Wind Speed 4 mph ()    
Max Wind Speed 20 mph    
Max Gust Speed 31 mph    
Visibility 10.0 miles    
Events      
Averages and records for this station are not official NWS values.
T = Trace of Precipitation, MM = Missing Value Source: Averaged Metar Reports

Daily Weather History Graph

Daily Weather History Graph

Search for Another Location

Airport or City:

Astronomy

Aug. 25, 2019 Rise Set
Actual Time 6:30 AM MDT 7:48 PM MDT
Civil Twilight 6:03 AM MDT 8:15 PM MDT
Nautical Twilight 5:30 AM MDT 8:48 PM MDT
Astronomical Twilight 4:55 AM MDT 9:23 PM MDT
Moon 1:10 AM MDT (8/25) 4:09 PM MDT (8/25)
Length of Visible Light 14h 12m
Length of Day
13h 17m
Waning Crescent, 28% of the Moon is Illuminated
Aug 25
Waning Crescent
Aug 30
New
Sep 5
First Quarter
Sep 13
Full
Sep 21
Last Quarter

Hourly Weather History & Observations

Time (MDT) Temp. Dew Point Humidity Pressure Visibility Wind Dir Wind Speed Gust Speed Precip Events Conditions
12:56 AM 48.9 °F 39.0 °F 69% 30.06 in 10.0 mi Calm Calm - N/A   Clear
1:56 AM 46.0 °F 35.1 °F 66% 30.06 in 10.0 mi Calm Calm - N/A   Clear
2:56 AM 44.1 °F 34.0 °F 68% 30.06 in 10.0 mi Calm Calm - N/A   Clear
3:56 AM 41.0 °F 34.0 °F 76% 30.08 in 10.0 mi Calm Calm - N/A   Clear
4:56 AM 39.9 °F 34.0 °F 79% 30.11 in 10.0 mi Calm Calm - N/A   Clear
5:56 AM 39.0 °F 33.1 °F 79% 30.12 in 10.0 mi Calm Calm - N/A   Clear
6:56 AM 37.0 °F 32.0 °F 82% 30.14 in 10.0 mi Calm Calm - N/A   Clear
7:56 AM 44.1 °F 34.0 °F 68% 30.15 in 10.0 mi Calm Calm - N/A   Clear
8:56 AM 52.0 °F 34.0 °F 50% 30.15 in 10.0 mi Calm Calm - N/A   Clear
10:56 AM 66.9 °F 35.1 °F 31% 30.10 in 10.0 mi Variable 4.6 mph - N/A   Clear
11:56 AM 73.0 °F 37.0 °F 27% 30.04 in 10.0 mi WSW 5.8 mph - N/A   Clear
12:56 PM 81.0 °F 39.9 °F 23% 29.99 in 10.0 mi NW 16.1 mph 20.7 mph N/A   Scattered Clouds
1:20 PM 82.4 °F 33.8 °F 17% 30.24 in 10.0 mi NW 16.1 mph 28.8 mph N/A   Clear
1:56 PM 82.0 °F 34.0 °F 18% 29.98 in 10.0 mi WNW 18.4 mph 31.1 mph N/A   Clear
2:56 PM 84.0 °F 34.0 °F 17% 29.96 in 10.0 mi West 19.6 mph 28.8 mph N/A   Clear
3:56 PM 84.0 °F 34.0 °F 17% 29.96 in 10.0 mi West 19.6 mph 27.6 mph N/A   Clear
4:56 PM 82.0 °F 35.1 °F 18% 29.96 in 10.0 mi WNW 15.0 mph 19.6 mph N/A   Clear
5:56 PM 82.0 °F 37.0 °F 20% 29.96 in 10.0 mi WSW 13.8 mph 17.3 mph N/A   Clear
6:56 PM 80.1 °F 35.1 °F 20% 29.98 in 10.0 mi WNW 13.8 mph - N/A   Clear
7:56 PM 75.0 °F 36.0 °F 24% 29.97 in 10.0 mi NW 6.9 mph - N/A   Clear
8:56 PM 69.1 °F 35.1 °F 29% 29.98 in 10.0 mi Variable 5.8 mph - N/A   Clear
9:56 PM 63.0 °F 37.0 °F 38% 30.00 in 10.0 mi North 5.8 mph - N/A   Clear
10:56 PM 59.0 °F 37.0 °F 44% 29.98 in 10.0 mi North 4.6 mph - N/A   Clear
11:56 PM 53.1 °F 37.9 °F 57% 29.98 in 10.0 mi Calm Calm - N/A   Clear